De Queen, AR

12:23 PM CDT on May 23, 2017 (GMT -0500)
Helms Sevier County

Weather History for KDEQ - April, 2013

Change the Weather History Date:

Tuesday, April 23, 2013

  Actual Average Record
Temperature  
Mean Temperature 62 °F 63 °F  
Max Temperature 76 °F 76 °F 89 °F (1976)
Min Temperature 47 °F 51 °F 35 °F (1993)
Degree Days  
Heating Degree Days 3 3  
Month to date heating degree days 165 135  
Since 1 July heating degree days 2946 3003  
Cooling Degree Days 0 2  
Month to date cooling degree days 49 24  
Year to date cooling degree days 53 35  
Growing Degree Days 12 (Base 50)    
Moisture  
Dew Point 53 °F    
Average Humidity 72    
Maximum Humidity 83    
Minimum Humidity 60    
Precipitation  
Precipitation 0.00 in 0.14 in 2.95 in (1964)
Month to date precipitation 1.53 2.73  
Year to date precipitation 7.03 14.37  
Snow  
Snow 0.00 in - - ()
Month to date snowfall 0.0  
Since 1 July snowfall 4.5  
Snow Depth 0.00 in    
Sea Level Pressure  
Sea Level Pressure 29.93 in    
Wind  
Wind Speed 8 mph (SW)    
Max Wind Speed 21 mph    
Max Gust Speed 25 mph    
Visibility 9 miles    
Events      
T = Trace of Precipitation, MM = Missing Value Source: NWS Daily Summary

Daily Weather History Graph

Daily Weather History Graph

Search for Another Location

Airport or City:

Trip Planner

Search our weather history database for the weather conditions in past years. The results will help you decide how hot, cold, wet, or windy it might be!

Date:

Astronomy

Apr. 23, 2013 Rise Set
Actual Time 6:36 AM CDT 7:55 PM CDT
Civil Twilight 6:10 AM CDT 8:21 PM CDT
Nautical Twilight 5:39 AM CDT 8:53 PM CDT
Astronomical Twilight 5:06 AM CDT 9:25 PM CDT
Moon 5:55 PM CDT 4:59 AM CDT
Length of Visible Light 14h 11m
Length of Day
13h 18m
Waxing Gibbous, 94% of the Moon is Illuminated
Apr 23
Waxing Gibbous
Apr 25
Full
May 2
Last Quarter
May 9
New
May 17
First Quarter

Hourly Weather History & Observations

Time (CDT) Temp. Dew Point Humidity Pressure Visibility Wind Dir Wind Speed Gust Speed Precip Events Conditions
12:53 AM 57.9 °F 48.0 °F 70% 29.92 in 10.0 mi ESE 5.8 mph - N/A   Clear
1:53 AM 55.0 °F 48.0 °F 77% 29.92 in 10.0 mi East 4.6 mph - N/A   Clear
2:53 AM 54.0 °F 48.0 °F 80% 29.90 in 10.0 mi East 4.6 mph - N/A   Clear
3:53 AM 57.0 °F 48.9 °F 74% 29.91 in 10.0 mi ENE 4.6 mph - N/A   Overcast
5:53 AM 55.0 °F 48.9 °F 80% 29.91 in 9.0 mi ENE 3.5 mph - N/A   Mostly Cloudy
6:53 AM 53.1 °F 48.9 °F 86% 29.91 in 8.0 mi East 4.6 mph - N/A   Mostly Cloudy
7:53 AM 57.9 °F 52.0 °F 81% 29.93 in 7.0 mi East 3.5 mph - N/A   Clear
8:53 AM 62.1 °F 55.0 °F 78% 29.95 in 7.0 mi Variable 5.8 mph - N/A   Mostly Cloudy
9:01 AM 62.1 °F 55.0 °F 78% 29.95 in 7.0 mi South 6.9 mph - N/A   Mostly Cloudy
9:53 AM 63.0 °F 55.9 °F 78% 29.96 in 7.0 mi SW 8.1 mph - N/A   Overcast
10:53 AM 64.9 °F 57.0 °F 75% 29.96 in 8.0 mi SW 9.2 mph - N/A   Unknown
11:02 AM 66.0 °F 57.0 °F 73% 29.97 in 8.0 mi South 8.1 mph - N/A   Overcast
11:53 AM 66.9 °F 57.9 °F 73% 29.95 in 9.0 mi SSW 4.6 mph - N/A   Overcast
12:44 PM 70.0 °F 59.0 °F 68% 29.93 in 10.0 mi SSW 6.9 mph - N/A   Overcast
12:53 PM 71.1 °F 60.1 °F 68% 29.92 in 10.0 mi SW 4.6 mph - N/A   Overcast
1:53 PM 73.0 °F 60.1 °F 64% 29.90 in 10.0 mi SW 11.5 mph - N/A   Overcast
2:53 PM 73.9 °F 61.0 °F 64% 29.89 in 10.0 mi SW 6.9 mph - N/A   Overcast
3:53 PM 75.0 °F 61.0 °F 62% 29.86 in 10.0 mi SW 11.5 mph - N/A   Overcast
4:53 PM 72.0 °F 62.1 °F 71% 29.86 in 10.0 mi West 18.4 mph 24.2 mph N/A   Overcast
5:53 PM 64.9 °F 57.0 °F 75% 29.89 in 10.0 mi West 11.5 mph 19.6 mph N/A   Overcast
6:06 PM 64.9 °F 57.0 °F 75% 29.90 in 10.0 mi WSW 11.5 mph - N/A   Overcast
6:53 PM 62.1 °F 55.0 °F 78% 29.92 in 10.0 mi WNW 10.4 mph - N/A   Overcast
7:53 PM 55.0 °F 48.9 °F 80% 29.95 in 10.0 mi West 11.5 mph - N/A   Overcast
8:53 PM 52.0 °F 46.0 °F 80% 29.97 in 10.0 mi NW 6.9 mph - N/A   Overcast
9:53 PM 50.0 °F 43.0 °F 77% 30.01 in 10.0 mi NW 6.9 mph - N/A   Overcast
10:53 PM 48.9 °F 42.1 °F 77% 30.03 in 10.0 mi NW 9.2 mph - N/A   Overcast
11:53 PM 48.0 °F 39.9 °F 74% 30.04 in 10.0 mi NW 8.1 mph - N/A   Overcast